Simultaneous Nadir Overpasses (SNOs) Predictions

Prediction of SNOs between METOP-A and TERRA Satellite Orbit:

Table of predicted SNOs for the next 14.0 days since TLE Epoch: 8/1/2020
Index Date (METOP-A) Time (METOP-A) Lat,Lon (METOP-A) SZA (METOP-A ) Date (TERRA) Time (TERRA) Lat,Lon (TERRA) SZA (TERRA ) Distance(km) Time Diff (sec)
1 08/02/2020 07:11:07 -81.40, -58.65 113.33 08/02/2020 07:11:34 -81.40, -58.72 113.32 1.20 27
2 08/02/2020 08:01:48 81.40, 108.70 66.69 08/02/2020 08:01:01 81.39, 108.69 66.66 1.32 47
3 08/05/2020 02:45:27 -81.39, 7.84 112.57 08/05/2020 02:45:48 -81.40, 7.85 112.55 1.08 21
4 08/05/2020 03:36:08 81.39, 175.15 67.44 08/05/2020 03:35:15 81.39, 175.23 67.42 1.46 53
5 08/07/2020 22:19:49 -81.40, 73.92 111.81 08/07/2020 22:20:04 -81.39, 74.03 111.80 2.15 15
6 08/07/2020 23:10:29 81.39,-118.42 68.23 08/07/2020 23:09:30 81.40,-118.23 68.23 3.08 59
7 08/10/2020 17:54:09 -81.39, 140.77 110.95 08/10/2020 17:54:19 -81.40, 140.58 110.96 3.28 10
8 08/10/2020 18:44:50 81.39, -51.99 69.06 08/10/2020 18:43:46 81.38, -52.09 69.01 2.00 64
9 08/13/2020 13:28:30 -81.40,-153.17 110.13 08/13/2020 13:28:34 -81.38,-153.26 110.14 2.15 4
